CZ-3B DEB, 40169

Orbit data source: Space-Track

CZ-3B DEB, 40169 is space debris in HEO originally from a launch on Sat, 04 Sep 2010 UTC launched from the Xichang Space Center, China (XSC). Debris objects in space refer to the collection of defunct objects orbiting the Earth. Examples of debris include non-operational satellites, rocket bodies, and fragments generated from explosions, collisions, or faulty payload assembly.

Loading next visibility...
Identifier
40169, 2010-042W
Orbit
HEO
Country
Flag of CNCN / PRC
Related business
Manufacturer
CALT
Mission
Spacecraft
Bus & Motor
Unknown
Mass
Unknown
Launch date (UTC)
2010-09-04 (15 years ago)
Launch vehicle
Unknown
Launch site
Xichang Space Center, China (XSC)
Object type
Payload
Rocket body
Debris
Shape & HBR
Unknown shape, 0.2 m
Radar Cross Section
Medium (>0.1 m² and <1 m²)

Expand to show TLE details & history
Last TLE update: 6 hours ago

TLE from 6 hours ago
0 CZ-3B DEB
1 40169U 10042W   26036.24527647  .00000008  00000-0  00000-0 0  9999
2 40169  26.6565 269.3349 7199865 342.9243 265.7176  1.94000986 95230
Epoch: 2026-02-05T05:53Z
TLE epoch observation values (Epoch: 2026-02-05T05:53:11.887Z)
Latitude
-2.51788°
Longitude
-129.27368°
Altitude
32,597.449 km
Speed
2.403 km/s
True Right ascension
06h 17m 42s
True Declination
-2° 30' 54"
Sunlit
Object was in daylight at epoch
Visualization orbit readout
Latitude
Unknown
Longitude
Unknown
Altitude
Unknown
Speed
Unknown
Apparent Right ascension
Unknown
Apparent Declination
Unknown
Sunlit
N/A
Visualization observer readout
Local Sidereal Time
14:22:36
Azimuth
Unknown
Elevation
Unknown
Doppler factor
Unknown
Orbital elements
Apogee altitude
40,335.681 km
Perigee altitude
1,226.864 km
Semi-major axis
27,159.409 km
Eccentricity
0.71999
Inclination
26.6565°
RAAN
269.3349°
Arg. of periapsis
342.9243°
True anomaly
202.67186°
Mean anomaly
265.7176°
Eccentric anomaly
232.84111°
Mean motion
0.48491 °/min
Orbital period
742.4 mins
BSTAR
0
Loading maneuver chart data...
Computing Atmospheric mass density...
Loading historical data...
Loading historical data...
Loading historical data...
Loading historical data...
Loading historical data...
Loading historical data...
Loading historical data...

Documentation

Showing up to 5 results
|